{"data":{"norad_id":61183,"intl_designator":"2024-167B","name":"GSAT0226 (GALILEO 31)","alt_names":[],"object_type":"PAYLOAD","status":"ACTIVE","operator":null,"country":"ESA","launch_date":"2024-09-17","launch_site_code":"AFETR","launch_vehicle":null,"mission":null,"orbit_class":"UNKNOWN","rcs_meters":null,"size_class":null,"mass_kg":null,"dimensions":null,"purposes":["earth_obs","nav"],"wikipedia_slug":null,"has_3d_model":false,"image_url":null,"decayed_at":null,"tle_current":{"epoch":"2026-09-19T03:37:44.620896Z","epoch_age_seconds":131065,"freshness":"FRESH","line1":"1 61183U 24167B   26262.15121089  .00000017  00000+0  00000+0 0  9990","line2":"2 61183  55.1639 218.7444 0002248 247.7759 240.1560  1.70473729 12457","mean_motion":1.70473729,"eccentricity":0.0002248,"inclination_deg":55.1639,"raan_deg":218.7444,"arg_perigee_deg":247.7759,"mean_anomaly_deg":240.156,"bstar":0,"rev_number":1245,"period_min":844.70493397842,"perigee_km":23215.560268733,"apogee_km":23228.868586735,"semimajor_km":29600.351427734,"source":"CELESTRAK","updated_at":"2026-09-20T09:00:46.499533Z"}}}